Location: Bukovany
(49.8234°N, 14.6297°E)
Time: 14:16:55
(UTC+00:00)

USA 215 - Visible Passes

Search period start: 14 February 2026 00:00
Search period end: 24 February 2026 00:00
Orbit: 1098 x 1109 km, 123.0° (Epoch: 10 January)

Date Brightness Start Highest point End Pass type
(mag) Time Alt. Az. Time Alt. Az. Time Alt. Az.
14 Feb 5.7 00:29:06 10° ENE 00:29:43 13° ENE 00:29:43 13° ENE visible
14 Feb 4.0 02:11:37 10° E 02:17:04 47° NNE 02:17:04 47° NNE visible
14 Feb 3.3 03:53:58 10° ESE 04:00:32 78° NNE 04:04:26 27° NW visible
14 Feb 3.8 05:37:40 10° SSE 05:43:52 44° SW 05:50:07 10° WNW visible
15 Feb 4.7 01:29:11 10° ENE 01:32:41 31° NE 01:32:41 31° NE visible
15 Feb 3.6 03:11:30 10° E 03:17:55 58° NNE 03:20:02 41° NW visible
15 Feb 3.3 04:54:17 10° SE 05:00:51 72° SW 05:07:23 10° WNW visible
16 Feb 5.4 00:46:37 10° ENE 00:48:16 19° ENE 00:48:16 19° ENE visible
16 Feb 3.8 02:29:07 10° E 02:35:25 50° N 02:35:38 49° N visible
16 Feb 3.3 04:11:29 10° ESE 04:18:03 78° NNE 04:22:59 19° NW visible
17 Feb 4.3 01:46:43 10° ENE 01:51:13 39° NE 01:51:13 39° NE visible
17 Feb 3.6 03:29:01 10° E 03:35:26 59° NNE 03:38:34 31° NW visible
17 Feb 3.3 05:11:49 10° SE 05:18:22 72° SW 05:24:58 10° WNW visible
18 Feb 5.0 01:04:07 10° ENE 01:06:47 25° NE 01:06:47 25° NE visible
18 Feb 3.8 02:46:39 10° E 02:52:56 50° N 02:54:08 45° NNW visible
18 Feb 3.4 04:29:00 10° ESE 04:35:34 78° NNE 04:41:29 13° WNW visible
19 Feb 5.6 00:21:24 10° ENE 00:22:20 15° ENE 00:22:20 15° ENE visible
19 Feb 4.0 02:04:13 10° ENE 02:09:42 46° NNE 02:09:42 46° NNE visible
19 Feb 3.7 03:46:31 10° E 03:52:57 59° NNE 03:57:03 23° NW visible
19 Feb 3.4 05:29:19 10° SE 05:35:53 72° SW 05:42:29 10° WNW visible
20 Feb 4.6 01:21:39 10° ENE 01:25:15 33° NE 01:25:15 33° NE visible
20 Feb 3.8 03:04:09 10° E 03:10:26 50° N 03:12:36 37° NW visible
20 Feb 3.4 04:46:31 10° ESE 04:53:05 78° NNE 04:59:41 10° WNW visible
21 Feb 5.3 00:38:55 10° ENE 00:40:48 21° NE 00:40:48 21° NE visible
21 Feb 3.8 02:21:44 10° ENE 02:27:59 48° N 02:28:08 48° N visible
21 Feb 3.7 04:04:02 10° E 04:10:28 59° NNE 04:15:29 17° NW visible
21 Feb 5.8 23:56:06 10° ENE 23:56:20 11° ENE 23:56:20 11° ENE visible
22 Feb 4.2 01:39:09 10° ENE 01:43:41 42° NNE 01:43:41 42° NNE visible
22 Feb 3.8 03:21:40 10° E 03:27:57 50° N 03:31:02 29° NW visible
22 Feb 3.4 05:04:02 10° ESE 05:10:37 79° NNE 05:17:12 10° WNW visible
23 Feb 4.9 00:56:26 10° ENE 00:59:13 27° NE 00:59:13 27° NE visible
23 Feb 3.8 02:39:15 10° ENE 02:45:30 48° N 02:46:33 44° NNW visible
23 Feb 3.7 04:21:33 10° E 04:27:59 59° NNE 04:33:54 12° WNW visible
